Location: Alvediston
(51.0078°N, 2.0364°W)
Time: 05:51:32
(UTC+00:00)

ATLAS 3B R/B - Pass Details

Date: 27 February 2020
Orbit: 1029 x 1166 km, 63.8° (Epoch: 12 March)

Event Time Altitude Azimuth Distance (km) Brightness Sun altitude
Rises 19:23:15 0° 309° (NW) 3,790 6.6 -16.2°
Reaches altitude 10° 19:26:06 10° 318° (NW) 2,843 5.7 -16.7°
Maximum altitude 19:32:16 37° 25° (NNE) 1,567 3.4 -17.6°
Enters shadow 19:35:30 25° 73° (ENE) 2,014 3.6 -18.1°
